Wind_Speed
23 24 26 30 29 27 25 25 26 27 28 28 29 28 28 27 28 28 27 27 26 26 26 26 27 25 22 21 20 20 22 22 20 19 18 17 17 17 17 18 17 17 18 18 18 18 18 18 18 17 18 18 17 17 16 16 15 15 15 15 16 17 15 15 17 16 16 16 17 17 17 17 17 19 19 20 19 18 19 18 18 18 19 19 19
25 25 26 29 29 28 26 26 26 27 28 28 28 28 28 27 28 28 27 26 25 25 25 25 24 22 21 21 20 21 22 20 19 20 18 17 17 18 17 18 17 17 18 19 19 19 18 18 18 18 18 17 17 17 17 16 15 15 15 15 17 16 14 14 16 17 16 17 17 17 17 17 17 18 18 19 19 18 18 18 18 18 17 17 17
25 25 25 28 30 28 27 27 27 27 27 28 28 29 28 28 28 27 27 26 25 25 25 24 22 21 21 22 22 22 21 18 18 19 18 17 17 18 17 17 17 17 19 19 19 19 19 19 18 18 17 17 15 15 16 17 15 15 15 15 16 13 14 14 16 19 19 17 16 16 17 18 17 17 18 18 19 18 18 17 17 18 17 16 16
24 24 25 28 28 28 28 27 28 27 27 27 28 29 29 28 27 27 27 26 25 24 24 23 22 21 22 22 22 22 19 17 18 18 19 18 17 17 17 17 17 18 19 19 19 19 19 18 18 17 16 15 15 15 14 16 15 15 15 15 14 12 15 15 17 21 20 18 16 14 15 17 17 16 16 17 17 17 17 17 17 16 15 15 16
24 24 25 27 26 26 28 27 28 27 27 28 28 29 29 29 28 27 26 24 23 23 23 22 21 22 22 21 20 20 19 19 19 19 19 18 18 18 18 17 18 19 20 19 19 19 19 18 17 16 15 14 14 14 13 14 14 14 14 15 14 13 15 16 18 20 18 17 15 13 13 15 17 16 15 15 15 16 16 16 16 15 15 15 15
25 24 24 25 24 25 28 27 27 27 27 28 28 29 29 29 28 27 25 24 22 22 22 21 21 22 21 20 20 20 20 20 20 19 19 18 18 19 19 19 19 19 19 19 19 18 18 17 16 15 14 13 13 12 12 12 13 13 13 13 14 15 16 16 18 20 18 15 13 12 12 12 13 14 13 14 14 14 14 14 15 15 15 15 15
25 25 24 23 22 26 29 27 26 26 27 28 28 29 28 28 27 26 24 23 22 21 21 21 23 22 20 20 21 20 19 20 20 20 18 18 18 18 19 19 19 19 19 18 18 17 17 16 14 13 12 12 11 10 10 11 11 12 13 13 14 16 15 15 17 17 16 12 10 10 10 11 11 12 12 12 12 12 11 11 13 14 14 14 14
24 24 23 22 22 26 30 28 26 27 27 27 28 28 28 27 27 25 23 22 21 20 21 22 21 20 20 21 21 20 19 20 20 19 18 18 18 17 18 18 19 18 18 17 16 16 15 14 13 13 12 11 10 9 9 10 10 10 12 13 14 16 14 14 16 14 12 9 9 9 10 11 11 11 11 11 11 12 12 11 12 13 13 13 13
23 23 23 23 22 27 30 29 29 27 27 27 27 27 27 27 27 25 23 22 21 22 22 22 20 20 20 21 21 21 20 20 20 20 18 18 18 18 17 18 18 17 17 16 16 15 14 14 13 12 11 10 9 9 9 9 9 9 10 13 14 15 16 16 14 12 10 8 9 9 9 10 11 11 10 10 11 12 12 12 12 12 12 11 12
24 23 23 22 24 27 28 30 31 29 28 28 28 27 27 27 26 25 23 23 23 22 21 20 19 20 20 21 22 22 21 20 20 20 18 17 17 17 18 18 17 16 16 16 15 14 14 13 12 11 10 10 9 9 9 9 9 9 10 12 13 15 16 16 14 10 9 10 10 9 10 10 11 11 9 10 11 11 11 11 11 11 12 12 13
23 22 22 23 26 28 28 29 29 30 29 28 28 27 26 26 25 24 23 22 22 20 19 18 18 20 20 20 21 21 21 20 20 20 18 17 17 17 17 18 16 15 15 15 14 14 13 12 11 10 10 10 9 10 10 11 10 10 10 11 13 15 14 15 13 9 10 11 12 12 12 12 12 13 11 10 11 10 10 10 11 11 12 13 14
23 22 22 24 26 27 27 27 28 28 28 28 27 26 25 25 25 24 23 22 21 19 18 17 18 19 19 19 19 19 19 18 19 19 18 16 16 17 17 17 16 15 14 14 15 13 12 11 11 10 10 9 10 11 12 12 12 12 11 11 13 14 14 14 11 8 10 11 11 12 12 13 13 13 12 12 11 11 12 11 12 13 12 13 13
23 22 22 24 23 25 27 27 27 26 26 26 26 27 27 27 26 24 23 22 20 19 18 18 18 18 17 17 17 16 16 17 18 18 17 15 14 16 17 17 16 15 15 14 14 12 11 11 10 10 9 9 10 12 13 13 13 13 12 12 13 14 14 14 10 8 10 10 10 12 12 13 13 13 12 12 12 12 12 12 13 14 14 13 14
23 22 23 24 22 24 27 27 27 26 25 26 27 27 27 27 26 23 22 21 19 19 19 18 18 17 16 17 16 16 16 16 17 17 15 13 13 16 16 16 15 15 14 13 12 12 12 11 9 9 8 9 11 12 13 12 13 13 13 13 13 15 15 12 9 9 10 10 11 11 12 13 12 13 12 12 12 13 13 14 15 15 14 14 14
23 23 23 24 23 24 25 26 26 26 26 27 28 26 26 26 25 22 21 20 18 19 19 18 18 17 17 17 16 16 16 16 16 15 13 12 14 16 15 15 15 14 13 12 12 12 12 10 8 8 8 8 10 12 12 12 12 12 13 13 13 14 14 9 8 9 9 10 10 11 12 12 12 12 13 13 13 14 14 15 15 14 14 14 14
23 24 24 23 24 24 23 25 26 27 28 28 27 26 26 25 23 22 21 19 19 19 19 18 17 16 16 16 15 15 15 15 15 14 12 13 15 16 15 15 14 14 13 12 12 12 11 10 8 8 7 7 9 11 11 10 10 11 11 12 12 12 13 10 7 8 8 9 10 11 12 12 12 12 13 13 13 14 14 14 14 14 14 14 14
22 23 23 24 24 23 22 23 24 26 27 28 27 26 25 24 23 22 20 19 19 18 17 16 16 15 15 14 14 14 14 14 14 13 12 14 16 16 15 14 13 13 12 12 11 11 11 10 9 7 7 7 8 10 11 10 9 10 10 11 12 13 15 12 7 8 9 9 9 10 11 11 12 12 13 13 13 13 13 13 14 14 14 14 14
22 22 23 24 24 23 23 23 23 24 25 26 26 25 24 23 22 21 20 19 18 17 17 16 15 15 14 14 14 14 14 14 14 14 13 14 15 16 15 13 12 12 12 11 10 10 10 10 9 8 7 7 7 9 10 10 9 8 9 10 11 13 15 12 8 9 9 9 9 10 11 11 11 12 12 12 12 13 13 13 13 13 13 13 13
20 21 22 23 23 23 24 24 23 23 24 24 23 23 23 22 21 21 20 19 18 17 17 16 15 15 15 15 15 14 14 14 14 14 14 14 14 14 14 14 13 12 12 11 10 11 10 10 10 9 8 8 7 7 8 9 9 8 8 8 10 12 13 11 8 9 9 9 10 11 11 11 11 12 12 11 11 12 12 12 13 13 13 13 13
19 20 21 21 22 23 24 23 23 23 22 22 22 22 22 21 20 20 20 19 18 18 17 17 16 16 16 17 16 15 14 14 14 13 14 14 14 14 13 14 13 13 12 11 11 11 10 9 9 9 9 8 8 7 7 8 9 8 8 8 10 12 10 8 8 9 9 9 10 11 11 11 11 11 11 11 11 12 12 12 12 12 12 12 12
18 19 20 21 22 22 23 23 23 22 21 21 21 21 20 20 20 19 19 19 18 18 18 17 17 17 17 17 16 14 13 13 13 13 13 12 13 13 13 13 12 12 12 10 10 10 9 9 9 9 9 9 8 7 7 7 9 9 8 8 10 9 6 7 8 9 9 10 10 11 11 10 10 10 10 11 11 12 12 12 12 11 11 12 12
18 19 19 21 22 22 22 22 23 21 20 20 20 21 21 20 19 19 18 18 19 19 18 17 16 16 17 16 14 12 12 12 13 13 12 12 12 12 12 11 11 11 10 10 10 9 9 9 9 8 8 9 9 7 7 7 8 9 9 9 7 5 5 7 8 8 9 10 10 12 11 10 9 9 10 10 10 11 11 11 12 12 11 11 11
18 19 20 21 22 22 21 23 24 22 21 19 19 21 20 19 19 19 19 19 20 18 17 16 15 15 15 13 13 12 12 11 12 13 13 12 12 11 11 10 10 9 9 9 9 9 9 9 9 9 9 9 8 7 6 7 8 9 10 8 5 5 6 7 7 8 9 9 10 12 11 9 9 9 10 10 10 10 11 11 11 11 10 10 10
18 19 19 20 21 21 21 23 24 22 20 18 19 20 18 18 18 19 19 19 19 18 18 16 14 14 13 13 13 13 12 11 12 13 12 11 11 10 8 7 7 7 7 7 7 8 8 8 9 9 8 7 7 7 6 7 8 9 9 7 5 6 6 6 7 8 8 9 9 12 10 9 9 9 10 9 9 10 11 10 10 10 10 10 10
18 18 18 20 20 20 20 22 23 21 19 19 19 18 17 17 16 17 18 18 18 19 20 15 13 13 13 13 13 13 12 12 12 11 10 10 10 9 7 6 7 7 8 8 8 8 8 8 8 8 7 7 6 6 6 7 7 8 9 7 7 7 6 6 7 7 8 9 10 12 10 9 10 10 9 8 9 10 9 9 9 9 9 10 10
17 17 17 19 19 20 20 22 22 20 19 18 18 18 17 16 15 16 16 16 16 18 18 15 14 14 13 13 13 13 12 12 12 10 10 10 9 8 7 7 7 8 8 7 8 7 7 7 7 6 6 6 6 6 6 7 7 7 7 7 7 7 6 6 7 7 9 9 11 12 9 9 10 9 9 7 9 10 8 9 10 9 9 9 10
15 15 16 16 17 18 19 20 20 19 18 17 17 17 16 15 15 16 16 15 15 16 16 15 14 14 13 13 13 13 12 12 11 10 9 9 8 8 7 7 7 7 7 7 7 7 6 6 6 5 5 5 5 6 6 7 7 6 7 7 7 6 6 6 6 7 9 9 11 12 10 9 9 9 8 8 9 10 8 10 10 9 10 10 10
13 13 13 13 15 15 16 17 17 18 18 17 17 17 15 14 15 16 15 15 14 15 15 15 14 13 12 12 12 12 12 11 11 10 9 8 8 8 7 6 6 6 6 7 7 6 6 6 6 5 5 5 5 5 6 6 6 6 6 6 6 6 6 5 6 7 8 9 11 12 11 8 9 9 8 8 9 10 10 10 10 10 10 9 9
11 11 11 12 14 14 15 15 16 18 17 17 17 16 14 14 15 14 14 15 14 13 13 13 13 13 12 11 12 12 11 10 10 9 9 9 9 8 7 6 6 6 6 6 6 6 6 5 5 5 5 5 5 5 5 5 6 6 6 6 6 6 6 5 6 7 7 8 10 11 11 8 8 10 8 9 10 11 12 11 9 10 10 10 10
10 12 13 14 15 15 17 16 15 17 17 17 16 15 14 14 15 14 15 15 12 12 13 12 12 12 11 12 12 11 10 10 10 9 9 9 9 9 9 8 7 6 6 5 5 4 4 4 4 4 5 4 5 4 4 5 5 5 5 6 6 6 5 5 6 6 6 7 9 11 11 8 9 10 9 10 12 12 12 11 10 11 11 10 10
11 13 13 14 15 14 17 18 17 17 16 16 15 14 14 14 14 14 15 15 12 13 13 12 12 12 12 12 12 11 10 9 10 9 9 10 9 9 9 9 8 7 7 6 5 4 4 4 3 4 4 4 4 4 4 4 4 5 5 5 5 5 5 5 6 6 6 7 8 10 10 8 9 10 9 9 11 11 10 10 10 11 10 9 9
11 11 11 13 17 15 16 19 20 19 16 15 15 14 14 13 14 14 14 14 13 14 13 12 12 12 12 12 12 11 10 10 10 10 9 9 9 9 8 8 8 7 7 6 6 5 4 4 4 3 3 3 4 4 4 4 4 4 4 4 4 5 5 6 6 7 7 7 8 9 10 10 10 10 9 9 9 9 9 9 8 8 8 8 8
15 12 11 15 20 19 17 18 20 21 17 15 15 14 13 13 14 14 13 14 14 13 13 12 12 12 13 12 12 11 11 11 10 10 9 8 8 8 7 7 7 7 6 6 6 5 5 4 4 4 3 4 4 4 4 4 4 3 3 4 4 4 4 5 6 7 8 8 7 8 9 9 9 9 9 9 8 8 7 8 7 6 7 7 6
20 17 16 18 21 21 20 19 20 20 17 16 15 14 13 13 14 13 13 14 13 13 13 12 12 12 12 12 11 11 11 11 10 11 9 8 8 7 7 6 6 6 6 6 6 5 5 5 5 5 4 4 4 4 4 4 4 4 3 3 3 3 4 5 6 6 6 6 6 7 8 8 8 8 8 7 7 6 6 6 6 6 6 6 6
25 24 22 20 21 23 22 20 20 19 18 17 16 15 13 13 13 12 13 14 13 13 13 13 12 12 12 12 11 11 11 11 11 11 10 8 7 7 7 6 6 6 6 6 5 5 5 5 5 5 5 4 4 4 3 4 4 4 3 3 3 3 4 4 5 5 3 5 8 8 9 10 9 9 10 9 8 5 5 6 8 7 6 7 7
27 26 22 21 22 24 23 20 19 19 18 18 18 16 14 12 12 12 13 14 13 13 13 13 13 12 12 11 11 11 10 11 11 11 10 8 8 7 7 7 7 7 6 6 5 5 5 5 4 4 5 5 5 4 4 4 4 4 4 3 4 4 4 4 4 5 4 6 9 7 7 8 8 9 10 11 10 8 6 7 8 7 7 8 7
24 23 20 20 21 22 23 19 18 19 18 17 18 17 14 13 12 12 13 14 13 13 13 13 13 12 12 11 11 11 10 10 10 10 10 8 8 8 8 8 7 7 6 6 6 6 6 6 5 4 4 5 5 5 5 5 5 5 4 4 4 4 4 4 4 5 5 8 9 7 6 5 6 7 6 7 9 9 8 7 6 6 7 8 7
20 21 20 19 18 18 20 20 19 20 18 18 19 18 15 14 13 12 13 15 13 13 13 13 12 12 11 11 11 10 10 10 10 10 9 8 8 8 8 8 7 7 7 7 6 6 6 6 6 4 4 5 6 6 6 5 5 5 5 4 5 4 5 4 5 6 5 6 7 6 5 5 5 4 4 6 7 8 9 7 5 6 7 7 7
19 20 20 18 16 15 19 23 22 21 19 18 18 18 16 15 14 13 14 15 14 13 12 12 11 11 11 11 11 10 10 10 10 9 9 9 9 8 8 9 8 8 7 7 6 6 6 6 7 5 4 4 5 6 6 6 6 6 6 6 5 5 5 4 5 6 4 3 4 3 4 5 4 4 4 4 4 6 8 6 5 7 6 6 5
18 19 19 16 18 19 19 23 24 21 19 18 18 16 16 15 14 14 14 14 14 13 12 11 11 10 11 11 11 10 10 10 10 10 9 9 9 8 9 9 9 8 8 7 6 6 6 7 7 7 7 6 6 6 7 8 8 7 7 7 7 6 6 5 5 5 4 3 3 3 4 5 4 4 4 4 3 4 6 5 5 7 7 5 4
21 21 20 19 22 21 18 21 24 22 20 20 18 16 17 17 15 15 15 15 14 13 12 11 10 10 10 11 10 10 10 11 10 10 10 9 9 8 9 9 8 8 7 7 6 6 7 8 8 8 8 8 7 7 7 8 8 8 7 7 8 7 7 6 5 5 5 4 3 4 5 5 4 3 3 3 3 3 4 5 5 6 6 5 4
23 23 21 21 22 22 21 23 23 22 21 22 20 18 20 19 17 17 17 16 15 13 12 11 10 10 10 10 10 10 11 11 11 10 10 9 9 8 9 9 8 7 7 7 7 7 8 8 8 8 8 8 7 8 8 6 6 7 7 7 8 8 7 6 5 5 5 4 3 4 5 5 3 2 2 2 2 3 4 5 6 6 6 5 5
21 22 21 22 25 28 27 23 21 22 22 22 21 21 22 20 19 19 17 17 15 13 11 11 10 10 11 11 10 10 11 11 10 10 10 9 9 9 9 9 8 7 7 8 8 7 7 8 8 8 8 7 7 8 7 5 4 6 6 5 5 5 5 6 5 5 5 5 4 4 5 5 3 1 2 2 3 4 4 4 5 5 5 4 4
20 21 22 24 29 30 26 22 21 21 20 21 21 21 22 20 19 18 15 14 13 12 11 11 10 10 11 11 10 10 10 10 10 10 10 9 9 9 10 10 9 8 7 8 8 7 7 7 7 7 7 8 7 8 7 4 4 5 4 2 3 3 3 5 5 5 6 6 5 5 7 7 4 1 2 3 3 3 3 3 3 3 3 3 4
21 22 23 26 29 26 22 21 21 19 19 21 22 21 20 18 17 16 13 11 12 13 12 11 11 11 11 11 10 11 10 10 10 10 9 9 9 9 10 10 10 9 8 8 8 8 7 7 7 7 7 7 7 8 7 5 4 4 3 1 2 1 1 5 6 5 6 5 6 8 9 8 6 5 5 4 3 3 2 2 2 2 2 3 4
21 22 24 29 28 24 22 21 20 20 19 21 22 21 20 19 19 18 15 14 13 13 13 13 13 13 12 11 10 10 9 10 9 9 9 9 9 9 9 9 9 9 8 7 7 8 8 8 7 7 7 6 6 7 7 6 5 3 1 1 1 3 1 6 5 4 5 5 8 10 10 10 9 7 6 5 3 3 3 3 4 4 4 4 5
22 22 25 30 28 24 24 22 19 19 18 19 21 21 20 19 21 20 18 17 16 14 13 13 14 13 12 12 10 9 9 9 9 8 8 8 9 9 8 8 8 8 8 8 8 8 8 8 8 7 7 7 6 6 6 6 6 4 2 1 0 2 2 5 3 3 5 5 9 11 10 10 9 8 7 6 5 5 5 5 6 6 6 6 6
21 22 24 28 28 24 24 19 15 17 17 17 20 20 20 20 22 20 18 17 16 14 14 14 13 13 13 12 11 10 9 9 9 9 8 8 8 8 8 8 7 8 8 8 8 8 7 7 7 6 6 7 6 5 5 6 6 6 5 4 1 0 2 3 3 2 4 5 7 8 9 9 9 9 7 7 7 7 7 7 7 7 8 8 8
18 20 23 28 30 26 24 19 14 16 16 15 18 19 19 20 20 17 14 14 13 14 15 14 13 13 13 12 11 10 9 9 8 8 8 8 7 8 8 7 7 7 7 7 7 7 7 7 7 6 6 6 6 4 4 7 7 6 7 7 4 3 3 2 2 2 2 5 6 5 7 8 9 8 7 7 8 7 8 8 7 8 9 9 10
14 14 13 19 23 18 18 21 19 17 16 18 19 17 17 18 17 16 15 13 13 14 14 13 13 14 14 12 11 11 10 9 8 7 7 7 7 7 7 8 8 7 7 7 7 7 7 7 7 6 6 6 6 5 4 6 7 5 5 7 6 5 5 4 3 2 2 5 6 6 7 7 8 8 7 8 8 8 8 8 7 8 9 9 10
14 15 9 12 16 14 17 21 21 19 18 20 19 16 17 18 16 18 20 17 16 15 14 14 14 14 14 13 12 11 10 9 9 7 7 7 7 7 7 7 8 7 7 6 7 7 7 7 7 6 6 6 5 5 4 4 4 5 5 5 5 4 4 4 5 4 2 4 6 6 7 8 9 9 8 8 8 8 8 8 8 9 9 9 9
Wind_Direction
147 150 151 159 157 155 154 150 150 151 152 154 157 159 160 159 158 158 155 153 149 146 142 143 145 145 141 142 142 140 141 139 134 131 132 130 130 129 127 125 123 123 121 119 119 121 120 116 113 110 106 101 95 90 90 93 93 97 103 103 101 96 90 89 90 93 94 95 95 94 91 88 86 87 89 90 87 86 87 83 81 78 78 77 75
148 147 150 158 156 157 155 151 150 149 150 152 156 157 157 156 156 156 153 149 145 143 142 144 146 145 143 143 140 140 141 138 136 136 136 134 132 130 129 129 128 127 123 122 122 123 120 116 114 112 110 105 98 92 88 90 93 99 105 111 110 103 102 99 93 96 97 96 96 95 91 87 84 84 85 87 85 84 83 80 81 79 75 75 74
144 144 147 155 156 156 154 151 149 148 149 150 153 154 153 153 154 154 152 148 143 143 144 145 145 145 144 141 139 140 140 137 138 139 137 135 134 132 132 133 132 130 128 128 126 125 121 119 117 115 113 107 101 93 85 84 89 99 104 114 115 106 112 111 101 99 97 94 95 95 94 90 86 82 80 81 81 80 78 77 79 79 77 75 73
142 142 145 154 155 154 154 150 148 147 147 147 149 150 150 149 151 151 150 148 145 145 144 144 144 145 142 138 137 139 139 138 138 138 138 137 138 138 137 134 131 130 131 131 128 126 123 121 119 118 115 110 104 96 88 83 84 94 106 117 120 115 118 119 109 102 98 97 95 97 99 93 87 82 80 79 80 79 77 75 74 74 75 75 74
142 142 145 151 151 153 153 149 147 146 146 146 147 148 149 148 148 148 148 148 147 146 144 144 145 144 140 137 138 138 138 138 139 141 140 140 142 141 137 133 133 132 132 131 129 127 125 124 122 119 116 113 108 100 91 85 84 90 104 116 123 127 124 124 118 108 105 106 102 101 100 93 86 81 79 79 78 77 76 73 72 70 66 64 66
142 142 143 147 148 152 151 148 146 144 145 145 147 148 149 150 150 148 149 149 147 148 146 147 146 143 140 141 142 139 137 137 141 142 143 146 146 140 134 135 137 135 132 131 131 128 127 128 124 119 115 114 115 108 97 88 85 89 101 111 120 130 130 130 126 111 102 106 105 101 100 97 89 81 80 81 81 79 76 75 73 71 67 61 58
142 143 143 145 147 153 151 146 143 142 143 144 145 147 149 151 152 151 151 150 149 151 151 149 146 143 145 146 143 140 138 139 141 140 143 145 140 135 133 137 138 135 135 134 133 129 127 127 123 120 118 117 119 117 108 98 91 91 101 110 120 130 134 137 136 116 95 95 101 99 99 102 98 89 87 87 86 80 72 73 75 74 71 65 60
142 143 144 144 147 154 152 147 142 142 142 143 145 147 151 152 153 152 151 150 149 150 148 145 143 143 146 145 141 139 139 139 140 138 138 135 132 135 136 138 139 138 137 135 133 129 126 124 123 122 120 121 121 121 118 111 104 97 102 112 121 129 132 133 133 113 90 90 98 96 94 100 104 98 90 88 87 75 63 63 67 72 71 70 70
143 143 144 144 148 151 150 150 147 144 143 143 145 146 149 150 151 149 148 146 143 142 141 142 144 145 147 146 142 140 140 139 139 137 136 135 137 139 139 142 142 138 137 136 133 130 127 126 125 125 123 124 123 122 123 121 117 108 106 114 121 125 123 118 112 95 86 95 96 91 92 101 105 101 93 88 91 89 82 75 69 71 73 75 77
144 144 145 143 147 149 149 150 150 149 149 147 146 147 147 147 148 147 145 143 141 141 142 147 150 151 152 150 144 141 140 138 138 138 139 141 141 140 142 144 141 139 140 139 133 130 130 128 126 127 128 126 122 123 125 125 122 117 112 116 123 122 115 104 90 82 89 93 88 86 92 98 98 99 99 90 92 100 99 89 83 81 78 75 75
144 144 144 144 149 150 149 148 148 150 151 150 150 149 148 148 148 148 147 145 145 145 148 151 152 152 151 147 142 141 139 137 138 139 141 140 140 142 144 143 141 141 143 138 135 133 132 131 132 132 127 121 119 122 123 122 120 119 116 118 125 121 109 91 81 85 92 89 88 89 92 92 92 96 98 93 88 88 86 80 81 83 80 76 74
143 142 142 144 150 151 149 147 146 147 147 148 149 150 150 148 148 148 148 148 148 150 150 150 149 147 144 140 139 139 138 137 138 140 141 138 142 147 145 144 143 143 144 142 139 136 135 139 138 131 122 118 121 123 120 117 116 117 115 117 124 121 103 86 83 90 91 90 90 90 89 88 92 96 94 91 86 82 81 78 77 77 77 77 76
143 141 141 142 150 152 149 147 145 144 143 143 144 146 147 146 145 145 147 149 151 152 150 148 146 143 140 139 137 138 138 139 139 140 140 136 144 152 148 147 148 148 148 144 140 138 139 143 138 128 120 117 123 125 119 115 113 113 112 113 120 117 99 88 92 94 90 89 87 87 87 87 92 95 93 90 87 84 83 82 79 78 78 78 78
143 140 141 142 150 152 148 146 145 143 142 141 142 144 145 144 144 145 148 151 153 152 150 148 145 142 140 138 137 140 141 142 141 140 139 135 145 156 152 147 149 149 147 142 140 144 146 145 138 128 119 114 123 127 119 113 110 109 109 111 117 111 95 87 93 94 90 87 85 88 88 89 93 94 91 87 84 83 85 86 82 81 82 81 81
144 141 142 143 148 151 149 146 145 143 142 141 141 143 143 143 145 148 151 151 151 149 149 148 145 143 142 141 140 141 142 143 142 142 141 137 144 158 157 148 149 148 146 145 143 148 151 148 139 128 117 112 121 127 122 113 109 107 107 109 113 109 96 89 92 92 90 87 85 87 88 89 92 92 89 86 85 85 85 86 85 85 84 83 83
146 143 143 143 146 149 150 148 146 145 143 142 142 142 141 143 146 149 152 151 150 148 148 148 147 146 145 145 143 141 141 143 145 145 142 138 143 158 161 149 148 150 149 148 146 149 151 146 140 131 121 112 117 126 126 117 110 106 104 104 105 107 104 98 95 93 91 88 85 88 91 92 93 90 89 88 88 88 86 87 88 87 84 83 84
147 144 143 144 146 147 149 150 148 146 144 144 144 144 144 146 147 150 152 151 151 150 150 151 150 150 150 150 149 148 146 143 147 147 142 139 141 153 163 157 150 151 151 151 151 151 149 145 142 137 126 116 114 123 128 124 116 107 102 100 98 104 104 97 91 93 91 87 87 91 93 97 97 93 90 89 88 89 87 87 86 86 85 83 83
147 145 145 146 148 148 149 151 149 145 145 146 147 147 148 149 150 152 152 151 151 151 152 153 151 150 152 153 153 154 150 146 146 145 142 141 142 149 160 165 161 155 154 157 157 152 148 147 146 142 132 122 115 118 129 130 123 113 106 99 97 99 95 89 89 92 91 86 86 90 96 103 101 95 92 90 91 90 87 87 87 86 85 84 83
148 148 150 150 152 152 150 150 148 147 147 148 150 152 152 152 152 152 152 152 151 152 153 151 150 149 149 150 151 151 150 150 150 149 146 144 145 149 155 164 168 165 163 165 160 154 152 152 149 145 137 129 121 116 127 134 131 122 110 102 98 87 77 81 91 92 90 84 86 93 102 105 98 96 95 92 93 92 89 89 89 87 86 85 85
150 151 155 155 155 155 152 151 150 150 149 150 154 155 154 153 152 153 153 153 153 153 151 149 148 148 148 147 146 146 147 149 150 152 150 148 150 149 151 157 162 163 164 165 163 161 158 154 149 148 142 135 131 121 123 135 141 130 115 108 91 73 66 82 90 88 87 84 89 97 103 103 99 99 98 96 96 94 91 89 89 89 89 87 85
155 156 157 156 156 157 155 153 152 151 148 149 152 154 154 153 153 153 152 152 153 152 149 148 147 148 148 143 142 141 141 143 145 148 147 149 154 151 150 153 156 158 161 164 166 168 165 161 155 152 145 140 139 129 122 136 146 139 127 109 86 76 81 91 88 88 89 88 94 98 96 100 102 101 99 96 95 94 94 93 90 90 90 87 86
160 160 159 159 159 160 160 154 150 150 150 149 149 152 153 152 153 153 152 153 153 151 148 147 147 147 145 140 140 141 139 140 141 142 143 147 151 150 152 158 160 161 163 163 168 171 171 166 160 158 153 148 143 134 127 136 149 148 136 112 94 103 104 93 94 95 93 90 99 106 104 106 105 101 101 98 96 95 95 96 94 91 90 90 89
165 165 163 164 164 164 164 156 150 151 153 150 150 151 151 152 153 154 153 152 152 153 153 150 149 148 144 142 143 142 139 140 141 140 141 146 153 159 165 171 171 172 170 166 170 171 170 166 161 160 157 154 149 146 145 147 154 154 144 128 127 137 113 102 102 98 98 95 103 113 112 111 107 103 103 101 99 97 94 94 94 93 92 94 90
168 167 165 167 168 167 164 160 154 153 154 152 152 151 152 154 154 154 152 153 155 157 159 156 152 150 146 146 144 143 139 139 143 141 139 141 152 162 164 166 169 168 157 151 156 154 155 157 157 157 160 168 167 166 163 162 165 162 161 160 158 146 126 114 108 104 104 102 110 116 114 111 109 110 109 105 103 101 100 97 96 97 95 92 88
168 168 168 169 170 169 165 161 156 156 156 153 153 154 155 154 154 153 152 157 162 163 162 155 152 152 147 146 144 145 143 141 144 141 139 139 143 147 144 144 148 146 139 141 146 142 145 150 156 163 174 185 182 179 173 176 177 173 179 175 163 153 142 125 117 117 111 113 123 121 117 107 103 111 113 110 107 105 106 103 101 101 97 94 92
171 170 170 170 170 171 168 161 157 159 157 154 154 155 155 155 156 155 155 162 168 169 164 153 153 154 148 148 147 148 147 148 150 146 145 145 146 148 146 146 143 143 143 147 147 145 149 152 161 171 178 181 179 181 181 189 187 184 188 177 166 161 152 135 127 124 120 125 128 124 122 109 108 113 107 108 113 112 109 105 104 100 95 92 92
174 171 171 170 169 172 170 162 160 161 159 158 156 156 157 156 157 158 159 165 168 171 166 155 155 156 152 152 151 152 152 152 155 152 150 150 150 150 147 145 142 142 144 144 142 144 144 143 155 160 160 166 172 178 186 197 195 192 191 179 171 163 155 144 136 132 128 133 133 126 124 117 121 114 91 95 116 120 114 108 106 97 90 83 84
168 166 166 166 168 170 169 164 160 161 162 162 160 160 160 156 158 161 163 168 171 171 166 156 155 157 156 155 154 154 155 155 157 156 153 151 149 148 147 145 144 142 142 142 141 142 140 141 147 147 148 153 160 172 183 194 198 198 190 178 172 165 158 150 141 138 132 138 142 134 129 120 116 107 88 95 115 118 113 109 106 95 91 89 87
155 154 158 161 168 166 165 165 162 164 165 163 163 163 160 158 159 162 166 168 172 171 163 156 155 157 158 158 156 154 157 158 158 158 155 152 151 152 150 149 150 150 149 148 148 145 143 143 143 144 146 148 154 167 177 184 192 195 187 178 177 172 163 156 145 140 135 142 148 142 136 123 110 107 99 104 110 109 110 114 112 101 98 95 91
141 151 162 166 173 171 166 165 167 170 168 163 164 164 160 161 161 163 167 167 170 168 160 158 158 159 160 160 159 158 161 162 160 159 157 155 156 156 155 156 158 160 159 156 157 153 147 146 149 150 150 151 153 160 171 177 182 181 184 182 179 179 172 164 152 148 146 147 151 145 137 127 110 103 99 104 106 107 114 118 111 101 97 95 92
143 159 168 170 176 180 174 168 168 169 168 166 165 164 162 163 163 163 167 167 167 164 162 163 160 160 161 160 162 164 164 163 163 161 159 158 160 161 159 161 163 168 169 167 165 157 153 147 141 143 147 153 151 156 167 168 171 170 175 176 174 180 175 170 166 165 164 159 157 147 142 138 117 101 97 103 107 110 115 117 109 100 97 97 93
147 169 172 172 176 182 185 177 172 168 169 171 164 162 165 165 163 164 168 167 164 164 166 164 160 161 161 161 165 167 166 165 165 163 162 162 164 165 164 166 167 170 172 170 170 163 157 148 135 137 143 151 151 154 157 154 159 159 166 166 168 174 172 174 176 176 174 168 163 152 153 150 126 105 95 100 114 119 115 115 117 111 105 101 93
152 174 181 183 182 181 187 185 179 173 169 171 167 166 169 166 164 166 168 165 164 167 167 165 163 162 162 165 166 167 167 167 167 167 165 166 167 166 166 170 169 170 171 170 174 171 170 164 152 152 153 159 157 155 152 149 150 146 149 150 151 159 164 175 183 187 180 170 161 139 145 158 143 124 104 97 110 118 118 123 124 114 112 115 102
163 177 188 191 189 183 185 188 184 178 173 170 169 170 170 167 167 169 169 165 166 169 168 169 166 163 166 167 166 169 170 169 172 173 170 169 168 165 165 169 169 168 169 171 176 176 178 175 167 166 163 163 155 148 147 145 145 142 131 125 131 141 156 174 187 193 179 159 155 135 139 160 157 144 128 112 109 112 123 125 114 97 102 122 118
176 183 189 191 191 186 186 189 184 181 180 175 173 173 168 168 170 170 170 167 170 173 171 172 168 166 168 168 169 171 172 173 176 176 174 171 169 169 168 167 167 163 168 177 173 169 173 171 171 169 161 158 147 137 130 125 126 124 112 111 129 142 155 177 178 167 152 145 148 147 155 162 163 164 162 150 134 125 123 108 99 87 88 111 119
185 187 188 187 189 186 185 188 184 180 181 178 176 174 170 173 173 171 173 171 175 177 174 173 171 171 170 170 174 173 175 177 179 180 177 175 175 174 171 168 164 160 167 173 163 163 168 163 171 175 164 156 143 133 125 121 117 113 115 122 130 139 150 173 160 130 141 155 145 144 153 159 168 174 169 156 143 143 135 109 100 90 83 96 106
190 188 185 182 185 184 182 186 185 181 179 177 177 175 173 175 175 176 176 176 181 178 176 177 174 174 173 174 178 177 181 182 184 186 180 179 180 174 167 163 161 159 163 166 162 167 170 163 165 172 169 155 142 136 131 127 123 120 122 124 127 134 143 152 135 118 144 161 158 159 153 159 174 172 165 152 148 150 138 118 109 99 88 89 90
194 191 188 181 177 178 181 188 192 189 183 178 179 178 176 177 179 183 180 178 182 180 178 180 177 177 176 176 179 179 183 184 188 190 184 183 178 169 162 158 159 160 161 164 163 166 171 167 157 152 164 161 149 144 139 130 126 124 124 125 125 125 127 132 133 140 156 159 165 172 163 166 166 162 169 154 148 143 131 126 123 112 97 86 82
194 193 192 181 173 180 191 197 198 193 185 178 178 178 176 178 180 185 185 179 179 181 181 181 179 179 179 177 177 178 184 186 190 191 188 185 176 164 160 159 159 159 162 164 161 165 170 164 152 148 156 155 147 145 139 130 124 121 120 117 115 114 117 128 135 141 146 145 153 154 156 162 146 147 160 141 131 120 118 126 115 105 98 83 78
191 190 187 178 180 187 191 195 195 193 189 181 179 178 174 177 181 187 190 183 178 181 183 182 180 180 180 178 176 179 183 185 190 192 190 187 179 166 161 161 161 161 163 162 161 169 171 162 155 153 149 142 144 145 139 133 126 118 114 105 104 108 112 121 124 123 122 129 140 133 139 145 143 158 150 120 116 111 116 124 103 94 92 82 77
190 189 182 177 185 186 185 192 194 194 190 184 182 180 177 179 183 187 190 185 179 180 182 183 183 181 178 176 178 182 184 185 188 188 187 185 180 171 166 166 164 163 162 160 163 170 170 161 152 153 154 150 148 146 142 140 136 128 123 115 112 112 113 119 118 118 126 138 153 151 141 134 140 157 135 116 128 125 118 111 98 89 86 81 73
192 187 182 180 185 186 189 193 195 195 191 187 185 182 181 182 184 185 188 185 179 178 180 181 181 179 177 176 180 184 183 184 182 180 181 181 179 174 171 169 164 162 158 156 161 168 171 161 153 158 159 153 148 150 152 155 160 152 145 141 129 118 116 120 118 118 123 128 150 154 134 120 131 147 135 131 112 82 71 73 82 84 78 71 63
191 187 184 181 185 192 194 190 193 198 194 189 187 185 183 183 185 185 186 185 178 175 176 175 175 173 174 175 177 179 178 179 176 174 177 180 181 177 172 167 163 168 163 155 159 169 172 163 161 164 158 152 150 158 169 188 188 164 164 168 147 136 135 130 123 117 111 108 123 146 143 131 133 151 122 115 98 78 72 70 81 91 80 66 68
190 185 180 178 186 195 195 188 191 195 194 190 188 188 185 183 186 184 182 180 171 168 165 164 169 168 170 173 172 172 172 175 174 174 176 178 180 177 173 169 168 176 168 158 165 172 170 164 167 171 165 161 160 165 177 204 195 177 198 203 158 178 169 143 145 122 103 105 100 102 124 134 131 118 89 94 113 100 98 93 80 89 78 67 81
191 182 178 179 187 190 190 191 191 189 192 191 186 185 184 181 181 177 174 168 158 161 162 161 168 168 168 170 170 169 170 173 175 175 176 174 176 176 174 171 172 177 170 164 170 172 171 170 172 178 178 174 170 171 176 188 193 206 271 344 139 231 152 149 163 116 92 102 100 93 103 114 112 106 100 98 107 92 83 84 66 65 70 83 100
195 184 178 183 186 181 186 194 190 188 192 192 186 182 182 180 178 176 174 169 164 169 168 165 169 167 167 168 167 169 171 174 175 174 172 170 172 172 171 172 173 175 170 168 171 172 174 174 176 182 187 191 184 175 171 170 179 200 316 70 179 274 141 159 176 111 101 104 99 97 96 103 102 95 92 87 83 82 82 77 69 72 75 81 93
200 189 179 185 185 173 181 191 187 188 188 189 189 182 182 183 181 182 180 172 170 173 170 166 168 164 163 165 166 170 174 174 173 171 169 167 169 169 170 171 172 174 171 169 172 175 177 175 177 183 186 192 192 182 168 164 175 184 194 142 216 309 136 167 189 133 137 113 96 96 92 94 91 83 79 77 77 82 86 85 82 86 87 84 91
201 192 182 184 181 171 181 186 181 187 188 191 192 185 185 186 185 187 185 177 169 165 163 162 164 162 162 164 165 169 174 175 173 170 168 165 166 167 168 168 171 175 174 175 176 174 173 171 174 179 181 184 187 187 169 171 185 180 185 203 194 127 152 188 231 174 141 128 116 108 96 87 80 78 79 80 84 85 85 88 89 90 88 85 89
196 193 184 180 181 180 183 182 186 195 195 196 193 189 188 187 187 185 184 179 164 157 157 156 158 159 160 162 164 166 170 170 169 169 168 165 162 161 163 166 170 174 174 175 172 165 163 165 170 173 175 177 180 189 176 182 201 189 182 198 191 176 177 179 222 230 140 137 139 127 116 104 86 81 80 85 91 92 92 95 96 95 91 89 88
182 179 168 160 165 164 158 170 193 202 200 201 197 194 192 192 191 181 179 177 159 154 154 149 152 156 159 161 162 164 164 163 164 166 165 162 160 160 164 168 168 170 171 170 165 157 154 156 164 168 169 171 173 186 195 193 205 205 189 194 190 182 180 167 174 197 152 136 136 140 143 132 110 97 92 96 101 101 100 103 106 102 99 98 96
132 131 130 132 145 143 142 167 194 198 196 206 206 199 193 196 196 183 181 174 155 151 151 148 153 156 160 162 162 163 162 161 163 163 163 162 162 163 165 167 164 166 166 167 166 158 150 150 154 159 164 171 169 178 205 206 199 204 199 202 205 189 179 172 164 168 165 139 136 139 136 131 124 118 116 118 116 110 106 105 105 103 102 102 99
Height
781 783 786 787 789 791 794 795 796 797 798 800 801 803 804 807 808 809 811 811 812 814 814 816 817 818 819 819 820 821 822 823 824 825 826 827 827 827 828 828 829 829 829 829 830 830 831 831 831 832 832 832 831 831 830 830 830 829 829 829 829 830 829 829 829 829 829 829 829 830 830 830 829 830 829 829 830 830 830 830 831 831 830 831 831
780 783 786 788 790 792 794 795 797 797 799 800 802 804 805 808 809 811 812 813 814 815 816 817 818 819 820 820 821 822 823 824 825 826 827 828 828 829 829 829 830 830 830 831 831 832 832 832 833 833 833 833 832 832 831 831 830 830 830 830 830 831 830 830 830 830 831 831 831 831 831 831 831 831 831 831 832 832 832 832 832 832 832 833 833
781 785 787 789 791 792 794 795 797 798 799 801 803 804 806 808 810 812 813 814 815 816 818 818 819 820 821 822 822 823 824 825 826 827 828 829 829 830 830 830 831 831 831 832 832 832 833 833 834 834 834 834 834 833 833 832 832 831 831 831 831 831 831 831 831 831 832 832 832 832 832 832 833 833 832 833 833 833 833 833 833 833 834 834 834
782 785 788 790 792 794 795 796 798 799 800 802 804 805 807 809 811 813 814 815 816 817 818 819 821 821 822 823 823 824 825 826 827 828 829 830 830 831 831 831 832 832 833 833 833 833 834 834 835 835 835 835 835 834 834 834 833 833 832 832 832 832 832 832 832 832 832 833 833 834 834 834 834 834 834 834 834 835 835 835 835 835 835 836 836
783 786 789 791 794 795 796 797 798 800 801 803 805 806 808 810 812 814 815 816 817 818 819 820 821 822 823 824 825 825 826 827 828 829 830 831 831 831 832 832 833 833 833 834 834 834 835 835 836 836 836 836 835 835 835 835 834 834 833 833 833 833 833 833 833 833 833 833 834 835 835 835 835 836 836 836 836 836 836 837 837 837 837 837 837
784 787 790 793 796 797 797 798 799 800 802 804 805 807 809 811 812 814 816 817 818 819 820 821 822 824 824 825 826 826 827 828 829 830 831 832 832 832 833 834 834 834 835 835 835 835 836 836 837 837 837 836 836 836 836 836 836 835 835 835 834 834 835 835 834 834 834 834 835 836 836 836 837 837 838 838 838 838 838 838 838 839 839 839 839
785 788 791 794 797 798 798 799 800 801 803 804 806 808 810 811 813 815 817 818 819 820 821 822 823 824 825 826 826 827 828 829 830 831 831 832 832 833 834 835 835 835 836 836 836 836 837 837 837 838 838 837 837 837 837 837 837 836 836 836 836 836 836 836 836 835 835 836 837 837 837 837 838 839 839 839 839 839 839 839 839 840 840 840 840
787 790 792 795 797 798 799 800 801 802 804 805 806 809 810 812 814 816 818 819 820 821 822 823 824 825 826 827 827 828 829 829 830 831 832 833 834 834 835 836 836 837 837 837 837 837 838 838 838 839 838 838 838 838 838 838 838 837 837 837 837 837 837 837 838 837 836 837 838 838 838 839 839 840 840 840 840 840 840 840 840 840 841 841 841
788 791 793 796 798 798 800 801 802 803 804 806 807 809 811 813 815 817 819 820 821 822 823 824 825 826 827 828 828 829 830 830 831 832 833 834 835 835 836 837 837 838 838 838 838 838 839 839 839 839 839 839 839 839 839 838 838 838 838 838 838 838 839 839 839 838 839 840 840 840 840 840 841 841 841 841 841 841 841 841 840 841 841 842 842
789 792 794 796 798 799 801 802 803 804 805 806 808 810 812 814 816 818 820 821 822 823 824 825 826 827 827 828 829 830 831 831 832 833 834 835 836 836 837 838 838 838 839 839 839 840 840 840 840 840 840 839 839 839 839 839 839 839 839 839 839 839 840 839 839 840 841 841 841 841 841 841 842 842 843 842 842 842 842 842 842 842 842 842 842
790 792 795 797 799 799 801 802 803 805 806 807 809 811 813 815 817 819 821 822 823 824 825 826 827 828 828 829 830 831 831 832 832 833 835 836 837 838 838 839 839 839 840 840 840 841 841 841 841 841 841 840 840 840 840 840 840 840 840 840 840 840 840 839 840 843 843 843 843 843 843 843 843 844 844 844 844 843 843 843 843 843 843 843 844
791 793 796 798 799 801 802 803 804 805 807 808 810 812 814 816 818 820 822 823 824 825 826 827 828 828 829 830 831 832 833 833 833 834 835 837 838 838 839 839 840 840 841 841 841 841 841 841 841 841 841 841 841 841 841 841 841 841 841 841 841 841 841 840 843 845 845 845 845 845 846 845 845 845 845 846 845 845 845 845 845 845 845 845 845
791 794 797 799 801 802 803 804 805 806 807 809 810 812 815 817 819 821 823 824 825 826 827 828 829 829 830 830 831 833 833 834 834 835 836 837 838 839 839 840 840 841 841 841 842 842 842 842 842 842 842 842 842 842 842 842 842 842 842 842 842 842 842 842 845 846 846 846 847 847 847 847 847 847 847 847 847 847 846 846 846 846 847 847 847
793 795 798 800 803 804 804 806 807 807 809 810 812 814 816 817 820 822 824 825 826 827 828 829 829 830 831 832 833 833 834 835 835 836 837 838 839 840 840 841 841 842 842 842 843 843 843 843 843 843 843 843 843 844 844 844 844 843 844 843 844 844 843 844 846 847 847 848 848 848 848 848 848 848 848 848 848 848 848 847 847 848 848 848 848
793 796 799 801 803 805 806 807 808 809 810 811 813 815 817 819 821 823 824 826 827 828 829 830 830 832 832 833 834 834 835 836 836 837 837 838 839 840 841 841 842 842 843 843 843 844 844 844 844 844 844 845 845 845 845 845 845 845 845 845 845 844 844 846 848 848 848 849 849 850 850 850 850 850 850 849 850 849 849 849 849 849 849 849 849
794 796 799 801 803 806 808 809 810 810 811 813 815 816 818 819 822 823 825 826 828 829 830 830 831 832 833 834 834 835 836 836 837 837 838 839 840 841 841 842 842 843 843 844 844 844 845 845 845 845 846 846 846 846 846 847 846 847 846 846 846 846 845 847 849 849 849 850 850 851 851 851 851 851 851 851 851 851 851 850 850 850 850 850 850
795 797 799 801 804 806 808 810 811 812 813 814 816 817 819 820 822 824 826 827 828 829 830 831 832 833 833 834 835 836 836 837 838 838 839 839 840 841 842 843 843 843 844 844 845 845 846 846 846 846 847 847 847 847 847 848 848 848 848 848 847 847 847 847 850 850 850 851 851 852 852 852 852 852 852 852 852 852 852 851 851 851 851 851 851
796 798 799 802 804 806 808 810 812 813 814 816 817 818 819 821 822 824 826 827 828 829 830 831 832 833 834 834 835 836 837 837 838 839 839 840 841 842 842 843 843 844 845 845 846 846 847 847 847 847 848 848 848 848 848 849 849 849 849 849 849 849 848 848 851 851 851 852 852 853 853 853 853 853 853 853 853 853 853 853 853 853 853 853 852
797 798 800 802 804 806 807 810 812 814 815 816 818 819 820 821 823 825 826 827 828 829 830 831 832 833 834 835 836 836 837 838 839 839 840 841 841 842 843 843 844 844 845 846 846 847 847 847 848 848 849 849 849 849 849 849 850 850 850 850 850 850 849 850 852 852 852 853 853 854 854 854 854 854 854 854 854 854 854 854 854 854 854 854 854
798 799 801 802 803 806 807 809 811 813 815 816 818 819 820 821 823 825 826 828 828 829 830 832 833 834 834 835 836 837 838 838 839 840 841 842 842 843 843 844 844 845 845 846 846 847 847 848 849 849 850 850 850 849 850 850 851 851 851 851 851 851 851 852 853 853 853 854 854 855 855 855 855 855 855 855 854 855 855 855 855 855 855 855 855
798 799 801 802 804 806 807 809 811 813 815 816 818 819 821 822 824 826 827 828 829 830 831 832 833 834 835 835 837 838 838 839 840 841 841 842 843 844 844 844 845 845 846 846 847 847 848 849 849 850 850 851 851 850 851 851 851 852 852 852 852 852 853 853 853 854 854 855 855 855 856 856 857 856 856 856 855 856 856 856 856 856 856 856 856
797 799 801 802 803 805 806 808 810 813 815 816 818 819 821 822 824 826 827 828 829 831 831 833 833 834 835 836 837 838 839 840 840 841 842 843 843 844 844 844 845 845 846 846 847 847 848 849 850 850 851 851 851 851 852 852 852 852 852 853 853 854 854 854 854 855 855 856 856 856 857 857 857 857 857 857 857 857 857 857 857 857 857 857 857
796 798 800 801 803 804 806 807 809 812 814 816 818 819 821 822 825 826 827 828 829 831 832 833 833 834 835 836 837 838 839 840 840 841 842 843 844 844 845 844 845 845 846 846 847 847 848 849 850 850 851 852 852 852 853 852 852 853 853 853 854 855 855 855 855 855 856 857 857 857 857 858 858 858 858 858 858 857 858 858 858 858 858 858 858
796 797 799 801 802 804 806 807 808 811 813 816 817 819 821 822 824 825 826 828 829 830 831 832 833 834 835 836 837 838 840 840 841 841 843 844 844 844 845 845 845 845 846 847 847 848 849 849 850 851 851 852 853 853 853 853 853 853 853 854 855 855 855 856 856 856 857 857 857 857 858 858 858 858 858 858 858 858 858 859 858 859 859 859 859
795 797 799 800 802 804 805 807 809 811 813 815 817 819 821 822 824 825 826 827 829 830 830 831 833 834 835 836 837 838 840 840 841 842 843 844 845 845 845 846 846 846 847 848 848 849 849 850 850 851 852 852 853 853 854 854 853 853 854 854 855 855 855 856 856 857 857 857 857 858 858 858 858 858 858 859 858 859 859 859 859 859 859 859 859
795 797 798 800 802 803 805 807 810 812 814 815 817 819 820 822 823 824 826 827 828 829 829 830 832 834 835 836 837 839 840 841 842 843 844 844 845 846 846 846 847 847 847 848 849 849 849 850 850 851 852 852 852 853 853 854 854 854 854 854 854 855 855 856 856 857 857 858 857 857 858 858 858 858 858 858 859 859 859 859 859 860 860 860 860
795 797 799 801 803 804 806 807 810 811 813 815 817 818 820 821 823 824 825 826 827 829 830 830 832 833 835 836 837 839 840 841 842 842 843 844 845 845 846 846 847 847 848 848 848 849 849 849 850 851 851 852 852 853 853 853 853 854 854 854 854 855 855 855 856 856 857 858 858 858 858 858 859 859 859 858 859 859 859 859 859 860 860 860 861
795 798 800 803 805 806 808 808 810 811 813 815 817 818 820 821 822 824 825 826 826 828 829 830 832 833 835 836 837 839 840 840 841 842 843 844 845 845 846 846 847 847 848 848 849 849 849 849 850 851 851 852 852 853 853 853 853 854 854 854 854 855 855 855 856 856 857 858 858 858 858 859 859 859 859 859 859 859 859 859 860 860 860 861 861
797 799 801 804 806 808 809 810 811 812 814 815 817 818 819 821 822 824 825 825 826 827 828 830 831 833 835 836 837 838 839 840 841 842 843 843 844 845 846 846 847 847 847 848 849 849 849 850 850 850 851 851 852 852 853 853 853 853 853 854 854 854 855 855 856 856 857 858 858 858 859 860 860 861 861 860 860 860 860 860 860 860 861 861 862
799 800 802 805 808 809 809 810 812 812 814 815 817 818 819 821 822 824 824 825 826 827 828 830 831 833 835 836 837 838 839 840 840 841 842 843 843 844 845 846 847 847 847 848 848 849 849 850 850 850 851 851 852 852 852 853 852 853 853 853 853 854 855 855 856 856 857 858 858 859 860 861 861 861 861 861 861 861 861 861 861 861 861 862 862
799 801 802 805 808 811 811 810 811 812 813 815 817 818 820 821 822 824 825 826 827 827 829 830 832 833 834 836 837 838 839 839 840 840 841 842 843 844 845 845 846 847 847 848 848 849 849 849 850 850 850 851 851 852 852 853 852 852 852 853 853 854 854 855 856 856 857 857 858 859 860 861 862 862 862 862 862 862 862 861 861 861 862 862 863
798 801 804 806 807 811 812 810 811 811 813 815 817 818 820 821 822 824 825 826 827 828 829 830 831 833 834 836 837 838 839 839 839 840 840 841 842 843 844 845 846 846 847 847 848 848 849 849 849 850 850 851 851 852 852 853 852 852 852 853 853 854 854 855 855 856 856 857 858 859 860 861 862 862 862 863 863 863 862 862 862 862 862 863 863
795 799 803 805 805 807 810 811 811 812 813 815 816 819 820 821 823 824 825 826 827 828 829 830 831 832 834 835 837 837 838 838 838 839 840 841 842 843 844 844 845 846 846 847 847 848 849 849 849 849 850 851 851 852 852 852 853 853 853 853 854 854 854 855 855 855 855 856 858 859 861 863 864 864 863 864 864 864 863 863 862 862 863 863 864
791 796 800 803 804 804 808 811 812 812 814 815 816 819 820 821 823 824 825 826 827 828 829 830 831 832 833 835 836 837 837 838 838 839 839 840 841 842 843 844 845 845 846 846 847 848 848 849 849 850 850 851 851 851 852 852 852 853 853 853 854 854 854 855 854 854 855 857 859 861 862 862 863 864 864 864 864 864 864 863 863 863 863 863 864
790 793 795 799 802 802 806 811 813 813 814 815 817 819 820 822 823 824 825 826 827 828 829 830 830 832 833 834 835 836 837 837 838 838 839 840 841 842 843 844 844 845 846 846 847 848 848 849 849 850 850 850 851 851 852 852 852 853 853 854 854 854 855 855 854 855 856 857 859 861 862 861 861 862 863 862 863 864 864 864 863 863 863 864 864
789 791 794 798 801 802 806 811 813 814 814 815 817 819 820 822 823 824 824 826 827 828 829 830 830 831 832 834 835 835 836 837 838 838 838 839 840 841 842 843 844 845 846 846 847 848 848 848 849 849 850 850 851 851 852 852 853 853 854 854 855 855 855 855 855 855 856 856 858 860 861 862 862 862 862 861 861 863 864 864 864 864 864 864 865
789 792 794 798 801 803 806 811 814 813 813 815 817 818 820 821 822 824 824 825 827 827 828 829 830 831 832 833 834 835 836 837 837 837 838 839 840 841 842 842 843 845 845 846 847 848 848 848 849 849 850 850 851 851 852 853 853 854 854 855 855 855 855 855 856 856 856 857 858 859 860 862 862 862 862 861 862 863 863 864 864 864 864 865 865
790 792 795 798 802 805 807 810 812 812 811 812 815 818 819 820 821 823 824 825 826 827 828 829 829 830 831 832 833 834 835 836 837 837 837 839 839 840 841 842 843 844 845 846 847 847 848 848 848 849 850 850 851 851 852 852 853 854 855 855 855 856 856 856 856 856 856 857 858 858 860 861 861 862 861 861 862 862 862 863 864 864 864 865 865
790 793 795 798 802 804 805 807 810 810 810 811 814 817 818 819 821 822 823 824 826 827 828 828 829 830 831 832 832 834 835 835 836 836 837 838 838 839 840 841 843 844 845 846 847 847 847 848 848 849 850 851 851 851 852 853 854 854 855 855 855 856 856 856 856 856 857 858 858 858 859 860 861 861 860 860 861 861 861 863 864 864 864 865 865
790 792 795 799 800 802 804 806 808 809 809 811 814 816 817 819 820 822 823 824 825 826 827 828 829 830 830 831 832 833 834 834 835 835 836 837 838 839 839 841 842 843 844 845 846 847 847 848 848 850 850 851 852 852 852 853 854 855 855 856 856 856 856 856 856 857 858 858 858 859 860 860 860 860 859 859 860 861 861 863 863 863 864 865 865
789 791 794 797 799 802 805 806 807 807 808 810 813 814 815 818 819 821 823 825 825 825 826 827 828 829 830 831 831 832 833 834 834 835 836 836 837 838 839 840 841 843 844 845 846 847 847 848 848 850 850 851 852 852 853 854 854 854 855 856 856 856 856 856 856 857 858 858 858 859 859 860 860 859 859 859 860 861 862 863 863 864 865 865 865
786 790 792 796 799 801 802 803 804 806 807 809 811 812 814 816 817 819 823 824 823 824 825 826 828 828 829 830 831 832 832 833 833 834 835 836 837 838 839 840 841 842 843 844 846 846 847 848 848 849 850 851 852 853 853 853 853 853 854 854 855 856 856 856 856 857 858 858 858 858 859 860 860 860 860 861 862 862 863 863 864 865 866 867 867
785 788 791 794 796 796 796 799 803 804 805 808 809 810 812 813 815 818 820 821 821 822 824 826 827 828 829 830 830 831 832 832 833 834 835 836 836 837 838 839 841 842 843 844 845 847 847 848 848 849 850 851 852 853 853 853 853 852 853 853 854 856 856 855 856 857 858 858 859 859 859 861 861 861 861 862 863 863 864 865 865 865 867 868 868
783 786 789 791 791 792 794 797 800 802 803 806 807 809 811 813 815 817 818 818 819 821 823 825 827 828 828 829 830 831 832 832 833 834 834 835 836 837 838 839 840 841 842 844 845 846 847 848 849 849 850 850 851 852 853 853 853 853 854 852 851 854 854 854 856 858 859 859 859 860 859 860 862 862 863 863 863 863 864 866 866 866 868 868 869
781 784 786 787 788 791 794 796 797 800 802 804 806 809 811 813 815 817 817 817 819 821 822 824 825 827 828 829 830 831 832 833 833 834 834 835 836 836 838 838 839 841 842 843 844 846 847 848 849 849 850 850 851 852 853 854 854 853 854 851 851 855 853 851 854 858 860 860 860 861 860 861 863 863 864 864 864 864 866 867 867 868 869 869 870
779 782 783 784 786 790 794 795 796 799 802 805 807 808 810 812 813 815 816 817 819 820 821 822 824 826 827 829 830 831 832 833 833 834 834 835 836 836 838 838 839 840 842 843 844 845 846 848 849 850 850 850 851 851 852 853 854 854 854 852 853 855 853 850 853 858 861 860 861 862 862 863 864 865 865 865 866 867 868 868 869 869 870 870 870
778 780 782 783 786 789 791 793 796 800 803 805 807 809 811 813 813 813 815 816 817 818 820 821 823 825 827 829 830 831 832 833 833 834 834 835 836 836 837 838 839 840 841 842 844 845 846 847 848 849 850 850 851 851 851 853 854 855 854 853 853 853 852 851 852 855 859 860 862 864 864 865 865 866 866 867 868 868 869 870 870 871 871 871 871
777 779 780 782 785 788 790 794 799 801 804 806 808 809 811 813 813 814 815 815 815 817 819 821 823 825 827 829 830 832 832 833 834 834 834 835 836 837 837 838 839 840 841 842 843 844 845 847 848 849 849 850 850 850 851 852 853 853 854 854 853 853 853 853 852 851 853 858 863 864 865 866 866 867 868 869 870 870 871 871 872 872 872 873 873
777 779 780 782 786 789 793 799 803 804 806 808 809 810 812 813 813 815 816 815 814 816 819 821 823 825 827 829 830 832 833 833 834 834 835 836 836 837 838 839 840 840 841 842 842 844 845 846 847 848 849 850 850 851 851 852 852 852 853 854 853 853 853 854 853 852 851 856 861 863 865 866 868 869 870 871 871 872 872 873 873 873 874 874 875
776 779 781 783 787 790 795 800 802 804 807 808 809 811 813 814 816 817 818 816 815 816 818 821 823 825 827 829 831 832 833 834 834 835 835 836 836 837 838 839 840 840 841 841 842 843 844 846 847 848 849 849 850 851 851 851 852 852 852 852 852 852 853 853 854 854 852 855 859 861 863 865 867 870 872 872 872 873 873 874 874 875 875 876 876
777 780 783 785 789 792 796 798 798 801 805 808 810 811 813 816 818 819 819 817 815 816 818 820 823 825 827 829 831 832 833 834 835 835 836 836 837 838 838 839 839 840 841 841 842 843 844 845 846 847 849 849 850 851 851 851 852 852 852 852 852 852 852 852 853 855 854 854 857 859 861 864 866 870 872 872 873 873 874 875 875 876 877 877 878